sat.trackr.live / text

‹ back to catalog

STARLINK-34656

NORAD 65032 · 2025-161T

PAYLOAD ACTIVE UNKNOWN

§ Identity

Operator
Country
US
Launch date
2025-07-30
Launch site
AFWTR
Launch vehicle
Mass (kg)
RCS (m²)

Purposes: comms

External: N2YO · Heavens-Above · Gunter

§ Orbital elements

Epoch: 2026-09-19T22:11:50.694720Z

Period
93.85 min
Inclination
53.1571°
Eccentricity
0.0000855
Mean motion
15.34410465 rev/d
Perigee alt
462.1 km
Apogee alt
463.3 km
Semi-major
6,840.8 km
B*
5.9623e-4
RAAN
110.1917°
Arg perigee
87.8726°
Mean anomaly
272.2374°
Rev number
6,509

§ Raw data

STARLINK-346561 65032U 25161T   26262.92489230  .00019828  00000+0  59623-3 0  99912 65032  53.1571 110.1917 0000855  87.8726 272.2374 15.34410465 65096

JSON: /api/v1/satellites/65032 · /tle

For live sub-satellite position, see the globe view (requires WebGL).

§ Visibility from observer

Set your observer location to see the next 7 days of passes ≥ 10°. The values pass through the URL so the page stays shareable.

No JS? Fill the form by hand. The geolocation button needs JavaScript.